Year,Month,Day,Hour,Minute,Value (Times are PST for temperature in C)
2016,07,21,00,00,16.20
2016,07,21,00,01,16.20
2016,07,21,00,02,16.20
2016,07,21,00,03,16.20
2016,07,21,00,04,16.20
2016,07,21,00,05,16.20
2016,07,21,00,06,16.20
2016,07,21,00,07,16.20
2016,07,21,00,08,16.20
2016,07,21,00,09,16.20
2016,07,21,00,10,16.20
2016,07,21,00,11,16.20
2016,07,21,00,12,16.20
2016,07,21,00,13,16.10
2016,07,21,00,14,16.10
2016,07,21,00,15,16.10
2016,07,21,00,16,16.10
2016,07,21,00,17,16.10
2016,07,21,00,18,16.10
2016,07,21,00,19,16.10
2016,07,21,00,20,16.00
2016,07,21,00,21,16.00
2016,07,21,00,22,16.00
2016,07,21,00,23,16.00
2016,07,21,00,24,16.00
2016,07,21,00,25,16.00
2016,07,21,00,26,16.00
2016,07,21,00,27,15.90
2016,07,21,00,28,15.90
2016,07,21,00,29,15.90
2016,07,21,00,30,15.90
2016,07,21,00,31,15.90
2016,07,21,00,32,15.90
2016,07,21,00,33,15.90
2016,07,21,00,34,15.90
2016,07,21,00,35,15.80
2016,07,21,00,36,15.80
2016,07,21,00,37,15.80
2016,07,21,00,38,15.80
2016,07,21,00,39,15.80
2016,07,21,00,40,15.70
2016,07,21,00,41,15.70
2016,07,21,00,42,15.70
2016,07,21,00,43,15.70
2016,07,21,00,44,15.70
2016,07,21,00,45,15.70
2016,07,21,00,46,15.70
2016,07,21,00,47,15.70
2016,07,21,00,48,15.70
2016,07,21,00,49,15.70
2016,07,21,00,50,15.70
2016,07,21,00,51,15.70
2016,07,21,00,52,15.70
2016,07,21,00,53,15.70
2016,07,21,00,54,15.70
2016,07,21,00,55,15.70
2016,07,21,00,56,15.70
2016,07,21,00,57,15.70
2016,07,21,00,58,15.60
2016,07,21,00,59,15.60
2016,07,21,01,00,15.60
2016,07,21,01,01,15.60
2016,07,21,01,02,15.60
2016,07,21,01,03,15.60
2016,07,21,01,04,15.50
2016,07,21,01,05,15.50
2016,07,21,01,06,15.50
2016,07,21,01,07,15.50
2016,07,21,01,08,15.50
2016,07,21,01,09,15.40
2016,07,21,01,10,15.40
2016,07,21,01,11,15.40
2016,07,21,01,12,15.40
2016,07,21,01,13,15.40
2016,07,21,01,14,15.30
2016,07,21,01,15,15.30
2016,07,21,01,16,15.30
2016,07,21,01,17,15.30
2016,07,21,01,18,15.30
2016,07,21,01,19,15.30
2016,07,21,01,20,15.30
2016,07,21,01,21,15.20
2016,07,21,01,22,15.20
2016,07,21,01,23,15.20
2016,07,21,01,24,15.20
2016,07,21,01,25,15.10
2016,07,21,01,26,15.10
2016,07,21,01,27,15.10
2016,07,21,01,28,15.10
2016,07,21,01,29,15.10
2016,07,21,01,30,15.00
2016,07,21,01,31,15.00
2016,07,21,01,32,15.00
2016,07,21,01,33,14.90
2016,07,21,01,34,14.90
2016,07,21,01,35,15.00
2016,07,21,01,36,15.00
2016,07,21,01,37,15.00
2016,07,21,01,38,15.00
2016,07,21,01,39,15.00
2016,07,21,01,40,15.00
2016,07,21,01,41,15.00
2016,07,21,01,42,15.00
2016,07,21,01,43,15.00
2016,07,21,01,44,15.00
2016,07,21,01,45,14.90
2016,07,21,01,46,14.90
2016,07,21,01,47,14.90
2016,07,21,01,48,14.90
2016,07,21,01,49,14.90
2016,07,21,01,50,14.90
2016,07,21,01,51,14.90
2016,07,21,01,52,14.90
2016,07,21,01,53,14.80
2016,07,21,01,54,14.80
2016,07,21,01,55,14.80
2016,07,21,01,56,14.80
2016,07,21,01,57,14.70
2016,07,21,01,58,14.70
2016,07,21,01,59,14.70
2016,07,21,02,00,14.70
2016,07,21,02,01,14.60
2016,07,21,02,02,14.60
2016,07,21,02,03,14.60
2016,07,21,02,04,14.60
2016,07,21,02,05,14.60
2016,07,21,02,06,14.60
2016,07,21,02,07,14.60
2016,07,21,02,08,14.60
2016,07,21,02,09,14.60
2016,07,21,02,10,14.60
2016,07,21,02,11,14.50
2016,07,21,02,12,14.50
2016,07,21,02,13,14.50
2016,07,21,02,14,14.50
2016,07,21,02,15,14.50
2016,07,21,02,16,14.50
2016,07,21,02,17,14.50
2016,07,21,02,18,14.50
2016,07,21,02,19,14.50
2016,07,21,02,20,14.50
2016,07,21,02,21,14.50
2016,07,21,02,22,14.40
2016,07,21,02,23,14.40
2016,07,21,02,24,14.40
2016,07,21,02,25,14.40
2016,07,21,02,26,14.40
2016,07,21,02,27,14.40
2016,07,21,02,28,14.40
2016,07,21,02,29,14.40
2016,07,21,02,30,14.40
2016,07,21,02,31,14.40
2016,07,21,02,32,14.40
2016,07,21,02,33,14.40
2016,07,21,02,34,14.30
2016,07,21,02,35,14.30
2016,07,21,02,36,14.30
2016,07,21,02,37,14.30
2016,07,21,02,38,14.30
2016,07,21,02,39,14.30
2016,07,21,02,40,14.30
2016,07,21,02,41,14.30
2016,07,21,02,42,14.30
2016,07,21,02,43,14.30
2016,07,21,02,44,14.30
2016,07,21,02,45,14.30
2016,07,21,02,46,14.30
2016,07,21,02,47,14.30
2016,07,21,02,48,14.30
2016,07,21,02,49,14.30
2016,07,21,02,50,14.30
2016,07,21,02,51,14.30
2016,07,21,02,52,14.30
2016,07,21,02,53,14.30
2016,07,21,02,54,14.30
2016,07,21,02,55,14.30
2016,07,21,02,56,14.30
2016,07,21,02,57,14.30
2016,07,21,02,58,14.30
2016,07,21,02,59,14.30
2016,07,21,03,00,14.30
2016,07,21,03,01,14.30
2016,07,21,03,02,14.30
2016,07,21,03,03,14.30
2016,07,21,03,04,14.40
2016,07,21,03,05,14.40
2016,07,21,03,06,14.40
2016,07,21,03,07,14.40
2016,07,21,03,08,14.40
2016,07,21,03,09,14.40
2016,07,21,03,10,14.40
2016,07,21,03,11,14.40
2016,07,21,03,12,14.40
2016,07,21,03,13,14.40
2016,07,21,03,14,14.40
2016,07,21,03,15,14.30
2016,07,21,03,16,14.30
2016,07,21,03,17,14.30
2016,07,21,03,18,14.30
2016,07,21,03,19,14.30
2016,07,21,03,20,14.30
2016,07,21,03,21,14.30
2016,07,21,03,22,14.20
2016,07,21,03,23,14.20
2016,07,21,03,24,14.20
2016,07,21,03,25,14.20
2016,07,21,03,26,14.20
2016,07,21,03,27,14.20
2016,07,21,03,28,14.20
2016,07,21,03,29,14.10
2016,07,21,03,30,14.10
2016,07,21,03,31,14.10
2016,07,21,03,32,14.10
2016,07,21,03,33,14.10
2016,07,21,03,34,14.10
2016,07,21,03,35,14.10
2016,07,21,03,36,14.10
2016,07,21,03,37,14.10
2016,07,21,03,38,14.10
2016,07,21,03,39,14.00
2016,07,21,03,40,14.00
2016,07,21,03,41,14.00
2016,07,21,03,42,14.00
2016,07,21,03,43,14.00
2016,07,21,03,44,13.90
2016,07,21,03,45,13.90
2016,07,21,03,46,13.90
2016,07,21,03,47,13.90
2016,07,21,03,48,13.90
2016,07,21,03,49,13.90
2016,07,21,03,50,13.90
2016,07,21,03,51,13.90
2016,07,21,03,52,13.90
2016,07,21,03,53,13.90
2016,07,21,03,54,13.80
2016,07,21,03,55,13.80
2016,07,21,03,56,13.80
2016,07,21,03,57,13.80
2016,07,21,03,58,13.80
2016,07,21,03,59,13.80
2016,07,21,04,00,13.80
2016,07,21,04,01,13.80
2016,07,21,04,02,13.70
2016,07,21,04,03,13.70
2016,07,21,04,04,13.70
2016,07,21,04,05,13.70
2016,07,21,04,06,13.70
2016,07,21,04,07,13.70
2016,07,21,04,08,13.70
2016,07,21,04,09,13.70
2016,07,21,04,10,13.70
2016,07,21,04,11,13.70
2016,07,21,04,12,13.70
2016,07,21,04,13,13.70
2016,07,21,04,14,13.70
2016,07,21,04,15,13.70
2016,07,21,04,16,13.70
2016,07,21,04,17,13.60
2016,07,21,04,18,13.60
2016,07,21,04,19,13.60
2016,07,21,04,20,13.60
2016,07,21,04,21,13.60
2016,07,21,04,22,13.60
2016,07,21,04,23,13.60
2016,07,21,04,24,13.60
2016,07,21,04,25,13.60
2016,07,21,04,26,13.60
2016,07,21,04,27,13.60
2016,07,21,04,28,13.60
2016,07,21,04,29,13.60
2016,07,21,04,30,13.60
2016,07,21,04,31,13.60
2016,07,21,04,32,13.60
2016,07,21,04,33,13.60
2016,07,21,04,34,13.70
2016,07,21,04,35,13.70
2016,07,21,04,36,13.70
2016,07,21,04,37,13.70
2016,07,21,04,38,13.80
2016,07,21,04,39,13.80
2016,07,21,04,40,13.80
2016,07,21,04,41,13.80
2016,07,21,04,42,13.80
2016,07,21,04,43,13.80
2016,07,21,04,44,13.80
2016,07,21,04,45,13.70
2016,07,21,04,46,13.70
2016,07,21,04,47,13.70
2016,07,21,04,48,13.70
2016,07,21,04,49,13.70
2016,07,21,04,50,13.70
2016,07,21,04,51,13.60
2016,07,21,04,52,13.60
2016,07,21,04,53,13.60
2016,07,21,04,54,13.60
2016,07,21,04,55,13.60
2016,07,21,04,56,13.60
2016,07,21,04,57,13.60
2016,07,21,04,58,13.60
2016,07,21,04,59,13.50
2016,07,21,05,00,13.50
2016,07,21,05,01,13.50
2016,07,21,05,02,13.50
2016,07,21,05,03,13.50
2016,07,21,05,04,13.50
2016,07,21,05,05,13.50
2016,07,21,05,06,13.50
2016,07,21,05,07,13.50
2016,07,21,05,08,13.50
2016,07,21,05,09,13.50
2016,07,21,05,10,13.50
2016,07,21,05,11,13.50
2016,07,21,05,12,13.50
2016,07,21,05,13,13.50
2016,07,21,05,14,13.50
2016,07,21,05,15,13.50
2016,07,21,05,16,13.50
2016,07,21,05,17,13.50
2016,07,21,05,18,13.40
2016,07,21,05,19,13.40
2016,07,21,05,20,13.40
2016,07,21,05,21,13.40
2016,07,21,05,22,13.40
2016,07,21,05,23,13.40
2016,07,21,05,24,13.40
2016,07,21,05,25,13.40
2016,07,21,05,26,13.40
2016,07,21,05,27,13.40
2016,07,21,05,28,13.40
2016,07,21,05,29,13.30
2016,07,21,05,30,13.30
2016,07,21,05,31,13.30
2016,07,21,05,32,13.30
2016,07,21,05,33,13.30
2016,07,21,05,34,13.30
2016,07,21,05,35,13.30
2016,07,21,05,36,13.30
2016,07,21,05,37,13.30
2016,07,21,05,38,13.30
2016,07,21,05,39,13.30
2016,07,21,05,40,13.30
2016,07,21,05,41,13.30
2016,07,21,05,42,13.30
2016,07,21,05,43,13.30
2016,07,21,05,44,13.30
2016,07,21,05,45,13.30
2016,07,21,05,46,13.30
2016,07,21,05,47,13.30
2016,07,21,05,48,13.30
2016,07,21,05,49,13.30
2016,07,21,05,50,13.30
2016,07,21,05,51,13.30
2016,07,21,05,52,13.30
2016,07,21,05,53,13.30
2016,07,21,05,54,13.30
2016,07,21,05,55,13.30
2016,07,21,05,56,13.30
2016,07,21,05,57,13.30
2016,07,21,05,58,13.30
2016,07,21,05,59,13.30
2016,07,21,06,00,13.30
2016,07,21,06,01,13.30
2016,07,21,06,02,13.30
2016,07,21,06,03,13.30
2016,07,21,06,04,13.30
2016,07,21,06,05,13.30
2016,07,21,06,06,13.30
2016,07,21,06,07,13.30
2016,07,21,06,08,13.30
2016,07,21,06,09,13.30
2016,07,21,06,10,13.40
2016,07,21,06,11,13.40
2016,07,21,06,12,13.40
2016,07,21,06,13,13.40
2016,07,21,06,14,13.40
2016,07,21,06,15,13.40
2016,07,21,06,16,13.40
2016,07,21,06,17,13.40
2016,07,21,06,18,13.40
2016,07,21,06,19,13.40
2016,07,21,06,20,13.50
2016,07,21,06,21,13.50
2016,07,21,06,22,13.60
2016,07,21,06,23,13.60
2016,07,21,06,24,13.70
2016,07,21,06,25,13.70
2016,07,21,06,26,13.70
2016,07,21,06,27,13.80
2016,07,21,06,28,13.80
2016,07,21,06,29,13.90
2016,07,21,06,30,13.90
2016,07,21,06,31,13.90
2016,07,21,06,32,14.00
2016,07,21,06,33,14.10
2016,07,21,06,34,14.10
2016,07,21,06,35,14.10
2016,07,21,06,36,14.20
2016,07,21,06,37,14.20
2016,07,21,06,38,14.20
2016,07,21,06,39,14.30
2016,07,21,06,40,14.30
2016,07,21,06,41,14.30
2016,07,21,06,42,14.40
2016,07,21,06,43,14.40
2016,07,21,06,44,14.40
2016,07,21,06,45,14.50
2016,07,21,06,46,14.60
2016,07,21,06,47,14.60
2016,07,21,06,48,14.70
2016,07,21,06,49,14.70
2016,07,21,06,50,14.70
2016,07,21,06,51,14.80
2016,07,21,06,52,14.80
2016,07,21,06,53,14.90
2016,07,21,06,54,14.90
2016,07,21,06,55,15.00
2016,07,21,06,56,15.10
2016,07,21,06,57,15.10
2016,07,21,06,58,15.20
2016,07,21,06,59,15.20
2016,07,21,07,00,15.30
2016,07,21,07,01,15.30
2016,07,21,07,02,15.40
2016,07,21,07,03,15.40
2016,07,21,07,04,15.50
2016,07,21,07,05,15.60
2016,07,21,07,06,15.70
2016,07,21,07,07,15.80
2016,07,21,07,08,15.90
2016,07,21,07,09,16.10
2016,07,21,07,10,16.20
2016,07,21,07,11,16.30
2016,07,21,07,12,16.50
2016,07,21,07,13,16.60
2016,07,21,07,14,16.70
2016,07,21,07,15,16.80
2016,07,21,07,16,17.00
2016,07,21,07,17,17.10
2016,07,21,07,18,17.20
2016,07,21,07,19,17.30
2016,07,21,07,20,17.40
2016,07,21,07,21,17.50
2016,07,21,07,22,17.50
2016,07,21,07,23,17.60
2016,07,21,07,24,17.70
2016,07,21,07,25,17.80
2016,07,21,07,26,17.90
2016,07,21,07,27,18.00
2016,07,21,07,28,18.00
2016,07,21,07,29,18.10
2016,07,21,07,30,18.10
2016,07,21,07,31,18.10
2016,07,21,07,32,18.10
2016,07,21,07,33,18.10
2016,07,21,07,34,18.10
2016,07,21,07,35,18.10
2016,07,21,07,36,18.10
2016,07,21,07,37,18.10
2016,07,21,07,38,18.10
2016,07,21,07,39,18.10
2016,07,21,07,40,18.10
2016,07,21,07,41,18.10
2016,07,21,07,42,18.10
2016,07,21,07,43,18.10
2016,07,21,07,44,18.10
2016,07,21,07,45,18.10
2016,07,21,07,46,18.10
2016,07,21,07,47,18.20
2016,07,21,07,48,18.20
2016,07,21,07,49,18.30
2016,07,21,07,50,18.40
2016,07,21,07,51,18.50
2016,07,21,07,52,18.60
2016,07,21,07,53,18.70
2016,07,21,07,54,18.80
2016,07,21,07,55,18.80
2016,07,21,07,56,18.90
2016,07,21,07,57,18.90
2016,07,21,07,58,19.00
2016,07,21,07,59,19.10
2016,07,21,08,00,19.10
2016,07,21,08,01,19.10
2016,07,21,08,02,19.10
2016,07,21,08,03,19.00
2016,07,21,08,04,19.00
2016,07,21,08,05,18.90
2016,07,21,08,06,18.90
2016,07,21,08,07,18.90
2016,07,21,08,08,18.90
2016,07,21,08,09,18.80
2016,07,21,08,10,18.80
2016,07,21,08,11,18.80
2016,07,21,08,12,18.80
2016,07,21,08,13,18.70
2016,07,21,08,14,18.70
2016,07,21,08,15,18.70
2016,07,21,08,16,18.70
2016,07,21,08,17,18.70
2016,07,21,08,18,18.70
2016,07,21,08,19,18.70
2016,07,21,08,20,18.70
2016,07,21,08,21,18.80
2016,07,21,08,22,18.90
2016,07,21,08,23,18.90
2016,07,21,08,24,19.00
2016,07,21,08,25,19.10
2016,07,21,08,26,19.20
2016,07,21,08,27,19.30
2016,07,21,08,28,19.30
2016,07,21,08,29,19.40
2016,07,21,08,30,19.50
2016,07,21,08,31,19.50
2016,07,21,08,32,19.50
2016,07,21,08,33,19.50
2016,07,21,08,34,19.60
2016,07,21,08,35,19.60
2016,07,21,08,36,19.60
2016,07,21,08,37,19.60
2016,07,21,08,38,19.70
2016,07,21,08,39,19.70
2016,07,21,08,40,19.70
2016,07,21,08,41,19.80
2016,07,21,08,42,19.80
2016,07,21,08,43,19.90
2016,07,21,08,44,20.00
2016,07,21,08,45,20.00
2016,07,21,08,46,20.10
2016,07,21,08,47,20.20
2016,07,21,08,48,20.30
2016,07,21,08,49,20.40
2016,07,21,08,50,20.50
2016,07,21,08,51,20.50
2016,07,21,08,52,20.60
2016,07,21,08,53,20.70
2016,07,21,08,54,20.70
2016,07,21,08,55,20.70
2016,07,21,08,56,20.70
2016,07,21,08,57,20.80
2016,07,21,08,58,20.80
2016,07,21,08,59,20.80
2016,07,21,09,00,20.80
2016,07,21,09,01,20.80
2016,07,21,09,02,20.80
2016,07,21,09,03,20.80
2016,07,21,09,04,20.80
2016,07,21,09,05,20.80
2016,07,21,09,06,20.90
2016,07,21,09,07,20.80
2016,07,21,09,08,20.90
2016,07,21,09,09,20.90
2016,07,21,09,10,21.00
2016,07,21,09,11,21.10
2016,07,21,09,12,21.10
2016,07,21,09,13,21.20
2016,07,21,09,14,21.30
2016,07,21,09,15,21.30
2016,07,21,09,16,21.30
2016,07,21,09,17,21.30
2016,07,21,09,18,21.30
2016,07,21,09,19,21.30
2016,07,21,09,20,21.30
2016,07,21,09,21,21.30
2016,07,21,09,22,21.30
2016,07,21,09,23,21.20
2016,07,21,09,24,21.10
2016,07,21,09,25,21.10
2016,07,21,09,26,21.20
2016,07,21,09,27,21.30
2016,07,21,09,28,21.30
2016,07,21,09,29,21.30
2016,07,21,09,30,21.30
2016,07,21,09,31,21.30
2016,07,21,09,32,21.30
2016,07,21,09,33,21.30
2016,07,21,09,34,21.30
2016,07,21,09,35,21.30
2016,07,21,09,36,21.30
2016,07,21,09,37,21.40
2016,07,21,09,38,21.40
2016,07,21,09,39,21.50
2016,07,21,09,40,21.50
2016,07,21,09,41,21.50
2016,07,21,09,42,21.50
2016,07,21,09,43,21.50
2016,07,21,09,44,21.60
2016,07,21,09,45,21.60
2016,07,21,09,46,21.60
2016,07,21,09,47,21.60
2016,07,21,09,48,21.60
2016,07,21,09,49,21.60
2016,07,21,09,50,21.60
2016,07,21,09,51,21.60
2016,07,21,09,52,21.60
2016,07,21,09,53,21.60
2016,07,21,09,54,21.60
2016,07,21,09,55,21.60
2016,07,21,09,56,21.60
2016,07,21,09,57,21.60
2016,07,21,09,58,21.60
2016,07,21,09,59,21.70
2016,07,21,10,00,21.70
2016,07,21,10,01,21.70
2016,07,21,10,02,21.80
2016,07,21,10,03,21.90
2016,07,21,10,04,21.90
2016,07,21,10,05,21.90
2016,07,21,10,06,22.10
2016,07,21,10,07,22.20
2016,07,21,10,08,22.30
2016,07,21,10,09,22.30
2016,07,21,10,10,22.30
2016,07,21,10,11,22.30
2016,07,21,10,12,22.30
2016,07,21,10,13,22.20
2016,07,21,10,14,22.30
2016,07,21,10,15,22.30
2016,07,21,10,16,22.40
2016,07,21,10,17,22.50
2016,07,21,10,18,22.50
2016,07,21,10,19,22.60
2016,07,21,10,20,22.60
2016,07,21,10,21,22.70
2016,07,21,10,22,22.70
2016,07,21,10,23,22.60
2016,07,21,10,24,22.50
2016,07,21,10,25,22.40
2016,07,21,10,26,22.40
2016,07,21,10,27,22.40
2016,07,21,10,28,22.40
2016,07,21,10,29,22.50
2016,07,21,10,30,22.40
2016,07,21,10,31,22.50
2016,07,21,10,32,22.50
2016,07,21,10,33,22.60
2016,07,21,10,34,22.60
2016,07,21,10,35,22.60
2016,07,21,10,36,22.60
2016,07,21,10,37,22.60
2016,07,21,10,38,22.60
2016,07,21,10,39,22.60
2016,07,21,10,40,22.60
2016,07,21,10,41,22.70
2016,07,21,10,42,22.70
2016,07,21,10,43,22.80
2016,07,21,10,44,22.90
2016,07,21,10,45,22.90
2016,07,21,10,46,22.90
2016,07,21,10,47,22.90
2016,07,21,10,48,22.90
2016,07,21,10,49,22.90
2016,07,21,10,50,23.00
2016,07,21,10,51,23.00
2016,07,21,10,52,23.00
2016,07,21,10,53,23.00
2016,07,21,10,54,22.90
2016,07,21,10,55,22.90
2016,07,21,10,56,22.80
2016,07,21,10,57,22.80
2016,07,21,10,58,22.80
2016,07,21,10,59,22.70
2016,07,21,11,00,22.70
2016,07,21,11,01,22.80
2016,07,21,11,02,22.90
2016,07,21,11,03,22.90
2016,07,21,11,04,23.00
2016,07,21,11,05,23.10
2016,07,21,11,06,23.10
2016,07,21,11,07,23.20
2016,07,21,11,08,23.20
2016,07,21,11,09,23.10
2016,07,21,11,10,23.10
2016,07,21,11,11,23.00
2016,07,21,11,12,23.00
2016,07,21,11,13,23.00
2016,07,21,11,14,23.00
2016,07,21,11,15,23.00
2016,07,21,11,16,23.00
2016,07,21,11,17,22.90
2016,07,21,11,18,23.00
2016,07,21,11,19,23.10
2016,07,21,11,20,23.10
2016,07,21,11,21,23.20
2016,07,21,11,22,23.30
2016,07,21,11,23,23.40
2016,07,21,11,24,23.40
2016,07,21,11,25,23.40
2016,07,21,11,26,23.40
2016,07,21,11,27,23.50
2016,07,21,11,28,23.40
2016,07,21,11,29,23.40
2016,07,21,11,30,23.50
2016,07,21,11,31,23.50
2016,07,21,11,32,23.60
2016,07,21,11,33,23.60
2016,07,21,11,34,23.50
2016,07,21,11,35,23.50
2016,07,21,11,36,23.60
2016,07,21,11,37,23.60
2016,07,21,11,38,23.60
2016,07,21,11,39,23.60
2016,07,21,11,40,23.50
2016,07,21,11,41,23.50
2016,07,21,11,42,23.40
2016,07,21,11,43,23.50
2016,07,21,11,44,23.60
2016,07,21,11,45,23.70
2016,07,21,11,46,23.80
2016,07,21,11,47,23.90
2016,07,21,11,48,24.10
2016,07,21,11,49,24.20
2016,07,21,11,50,24.40
2016,07,21,11,51,24.50
2016,07,21,11,52,24.50
2016,07,21,11,53,24.50
2016,07,21,11,54,24.50
2016,07,21,11,55,24.50
2016,07,21,11,56,24.60
2016,07,21,11,57,24.60
2016,07,21,11,58,24.60
2016,07,21,11,59,24.50
2016,07,21,12,00,24.50
2016,07,21,12,01,24.40
2016,07,21,12,02,24.40
2016,07,21,12,03,24.30
2016,07,21,12,04,24.40
2016,07,21,12,05,24.40
2016,07,21,12,06,24.40
2016,07,21,12,07,24.40
2016,07,21,12,08,24.40
2016,07,21,12,09,24.40
2016,07,21,12,10,24.40
2016,07,21,12,11,24.40
2016,07,21,12,12,24.50
2016,07,21,12,13,24.50
2016,07,21,12,14,24.60
2016,07,21,12,15,24.60
2016,07,21,12,16,24.60
2016,07,21,12,17,24.60
2016,07,21,12,18,24.60
2016,07,21,12,19,24.60
2016,07,21,12,20,24.60
2016,07,21,12,21,24.60
2016,07,21,12,22,24.70
2016,07,21,12,23,24.70
2016,07,21,12,24,24.80
2016,07,21,12,25,24.80
2016,07,21,12,26,25.00
2016,07,21,12,27,25.00
2016,07,21,12,28,25.10
2016,07,21,12,29,25.00
2016,07,21,12,30,25.00
2016,07,21,12,31,24.90
2016,07,21,12,32,24.80
2016,07,21,12,33,24.80
2016,07,21,12,34,24.90
2016,07,21,12,35,24.80
2016,07,21,12,36,24.80
2016,07,21,12,37,24.80
2016,07,21,12,38,24.80
2016,07,21,12,39,24.80
2016,07,21,12,40,24.80
2016,07,21,12,41,24.80
2016,07,21,12,42,24.80
2016,07,21,12,43,24.90
2016,07,21,12,44,25.00
2016,07,21,12,45,25.00
2016,07,21,12,46,25.00
2016,07,21,12,47,25.00
2016,07,21,12,48,25.00
2016,07,21,12,49,25.10
2016,07,21,12,50,25.10
2016,07,21,12,51,25.20
2016,07,21,12,52,25.20
2016,07,21,12,53,25.20
2016,07,21,12,54,25.20
2016,07,21,12,55,25.30
2016,07,21,12,56,25.40
2016,07,21,12,57,25.50
2016,07,21,12,58,25.50
2016,07,21,12,59,25.70
2016,07,21,13,00,25.80
2016,07,21,13,01,25.90
2016,07,21,13,02,25.90
2016,07,21,13,03,25.90
2016,07,21,13,04,25.90
2016,07,21,13,05,25.70
2016,07,21,13,06,25.60
2016,07,21,13,07,25.50
2016,07,21,13,08,25.50
2016,07,21,13,09,25.60
2016,07,21,13,10,25.60
2016,07,21,13,11,25.60
2016,07,21,13,12,25.60
2016,07,21,13,13,25.60
2016,07,21,13,14,25.60
2016,07,21,13,15,25.60
2016,07,21,13,16,25.60
2016,07,21,13,17,25.60
2016,07,21,13,18,25.60
2016,07,21,13,19,25.50
2016,07,21,13,20,25.40
2016,07,21,13,21,25.30
2016,07,21,13,22,25.30
2016,07,21,13,23,25.30
2016,07,21,13,24,25.20
2016,07,21,13,25,25.20
2016,07,21,13,26,25.30
2016,07,21,13,27,25.30
2016,07,21,13,28,25.40
2016,07,21,13,29,25.40
2016,07,21,13,30,25.40
2016,07,21,13,31,25.30
2016,07,21,13,32,25.30
2016,07,21,13,33,25.30
2016,07,21,13,34,25.30
2016,07,21,13,35,25.30
2016,07,21,13,36,25.20
2016,07,21,13,37,25.20
2016,07,21,13,38,25.30
2016,07,21,13,39,25.40
2016,07,21,13,40,25.50
2016,07,21,13,41,25.60
2016,07,21,13,42,25.60
2016,07,21,13,43,25.70
2016,07,21,13,44,25.70
2016,07,21,13,45,25.80
2016,07,21,13,46,25.80
2016,07,21,13,47,25.80
2016,07,21,13,48,25.80
2016,07,21,13,49,25.80
2016,07,21,13,50,25.70
2016,07,21,13,51,25.70
2016,07,21,13,52,25.80
2016,07,21,13,53,25.90
2016,07,21,13,54,26.00
2016,07,21,13,55,26.10
2016,07,21,13,56,26.20
2016,07,21,13,57,26.30
2016,07,21,13,58,26.30
2016,07,21,13,59,26.30
2016,07,21,14,00,26.20
2016,07,21,14,01,26.20
2016,07,21,14,02,26.30
2016,07,21,14,03,26.30
2016,07,21,14,04,26.30
2016,07,21,14,05,26.20
2016,07,21,14,06,26.20
2016,07,21,14,07,26.20
2016,07,21,14,08,26.20
2016,07,21,14,09,26.20
2016,07,21,14,10,26.10
2016,07,21,14,11,26.10
2016,07,21,14,12,26.00
2016,07,21,14,13,26.00
2016,07,21,14,14,26.00
2016,07,21,14,15,26.00
2016,07,21,14,16,26.00
2016,07,21,14,17,26.10
2016,07,21,14,18,26.10
2016,07,21,14,19,26.10
2016,07,21,14,20,26.10
2016,07,21,14,21,26.10
2016,07,21,14,22,26.10
2016,07,21,14,23,26.10
2016,07,21,14,24,26.10
2016,07,21,14,25,26.00
2016,07,21,14,26,26.10
2016,07,21,14,27,26.20
2016,07,21,14,28,26.10
2016,07,21,14,29,26.10
2016,07,21,14,30,26.20
2016,07,21,14,31,26.20
2016,07,21,14,32,26.20
2016,07,21,14,33,26.30
2016,07,21,14,34,26.30
2016,07,21,14,35,26.30
2016,07,21,14,36,26.40
2016,07,21,14,37,26.60
2016,07,21,14,38,26.60
2016,07,21,14,39,26.60
2016,07,21,14,40,26.60
2016,07,21,14,41,26.50
2016,07,21,14,42,26.40
2016,07,21,14,43,26.30
2016,07,21,14,44,26.20
2016,07,21,14,45,26.30
2016,07,21,14,46,26.30
2016,07,21,14,47,26.30
2016,07,21,14,48,26.40
2016,07,21,14,49,26.40
2016,07,21,14,50,26.40
2016,07,21,14,51,26.50
2016,07,21,14,52,26.50
2016,07,21,14,53,26.40
2016,07,21,14,54,26.40
2016,07,21,14,55,26.30
2016,07,21,14,56,26.30
2016,07,21,14,57,26.40
2016,07,21,14,58,26.50
2016,07,21,14,59,26.50
2016,07,21,15,00,26.50
2016,07,21,15,01,26.50
2016,07,21,15,02,26.50
2016,07,21,15,03,26.60
2016,07,21,15,04,26.60
2016,07,21,15,05,26.70
2016,07,21,15,06,26.80
2016,07,21,15,07,26.80
2016,07,21,15,08,26.90
2016,07,21,15,09,26.90
2016,07,21,15,10,26.80
2016,07,21,15,11,26.80
2016,07,21,15,12,26.70
2016,07,21,15,13,26.70
2016,07,21,15,14,26.70
2016,07,21,15,15,26.60
2016,07,21,15,16,26.60
2016,07,21,15,17,26.60
2016,07,21,15,18,26.60
2016,07,21,15,19,26.60
2016,07,21,15,20,26.60
2016,07,21,15,21,26.60
2016,07,21,15,22,26.70
2016,07,21,15,23,26.70
2016,07,21,15,24,26.80
2016,07,21,15,25,26.90
2016,07,21,15,26,27.00
2016,07,21,15,27,27.10
2016,07,21,15,28,27.00
2016,07,21,15,29,26.90
2016,07,21,15,30,26.90
2016,07,21,15,31,26.80
2016,07,21,15,32,26.90
2016,07,21,15,33,26.90
2016,07,21,15,34,26.90
2016,07,21,15,35,26.90
2016,07,21,15,36,26.80
2016,07,21,15,37,26.70
2016,07,21,15,38,26.80
2016,07,21,15,39,26.90
2016,07,21,15,40,26.90
2016,07,21,15,41,26.90
2016,07,21,15,42,26.80
2016,07,21,15,43,26.70
2016,07,21,15,44,26.70
2016,07,21,15,45,26.60
2016,07,21,15,46,26.60
2016,07,21,15,47,26.50
2016,07,21,15,48,26.50
2016,07,21,15,49,26.50
2016,07,21,15,50,26.40
2016,07,21,15,51,26.40
2016,07,21,15,52,26.30
2016,07,21,15,53,26.30
2016,07,21,15,54,26.30
2016,07,21,15,55,26.40
2016,07,21,15,56,26.50
2016,07,21,15,57,26.60
2016,07,21,15,58,26.70
2016,07,21,15,59,26.80
2016,07,21,16,00,26.90
2016,07,21,16,01,26.90
2016,07,21,16,02,27.00
2016,07,21,16,03,27.10
2016,07,21,16,04,27.10
2016,07,21,16,05,27.10
2016,07,21,16,06,27.10
2016,07,21,16,07,27.20
2016,07,21,16,08,27.20
2016,07,21,16,09,27.20
2016,07,21,16,10,27.20
2016,07,21,16,11,27.30
2016,07,21,16,12,27.30
2016,07,21,16,13,27.30
2016,07,21,16,14,27.30
2016,07,21,16,15,27.30
2016,07,21,16,16,27.20
2016,07,21,16,17,27.20
2016,07,21,16,18,27.20
2016,07,21,16,19,27.10
2016,07,21,16,20,27.00
2016,07,21,16,21,26.90
2016,07,21,16,22,26.90
2016,07,21,16,23,26.90
2016,07,21,16,24,26.90
2016,07,21,16,25,26.90
2016,07,21,16,26,26.80
2016,07,21,16,27,26.80
2016,07,21,16,28,26.80
2016,07,21,16,29,26.80
2016,07,21,16,30,26.80
2016,07,21,16,31,26.80
2016,07,21,16,32,26.80
2016,07,21,16,33,26.80
2016,07,21,16,34,26.80
2016,07,21,16,35,26.90
2016,07,21,16,36,26.90
2016,07,21,16,37,26.90
2016,07,21,16,38,26.90
2016,07,21,16,39,26.90
2016,07,21,16,40,26.90
2016,07,21,16,41,27.00
2016,07,21,16,42,27.00
2016,07,21,16,43,27.10
2016,07,21,16,44,27.10
2016,07,21,16,45,27.10
2016,07,21,16,46,27.10
2016,07,21,16,47,27.10
2016,07,21,16,48,27.00
2016,07,21,16,49,27.00
2016,07,21,16,50,27.00
2016,07,21,16,51,26.90
2016,07,21,16,52,26.90
2016,07,21,16,53,26.90
2016,07,21,16,54,26.90
2016,07,21,16,55,27.00
2016,07,21,16,56,27.00
2016,07,21,16,57,27.00
2016,07,21,16,58,26.90
2016,07,21,16,59,26.80
2016,07,21,17,00,26.80
2016,07,21,17,01,26.80
2016,07,21,17,02,26.70
2016,07,21,17,03,26.60
2016,07,21,17,04,26.60
2016,07,21,17,05,26.60
2016,07,21,17,06,26.60
2016,07,21,17,07,26.60
2016,07,21,17,08,26.60
2016,07,21,17,09,26.50
2016,07,21,17,10,26.40
2016,07,21,17,11,26.40
2016,07,21,17,12,26.40
2016,07,21,17,13,26.40
2016,07,21,17,14,26.30
2016,07,21,17,15,26.30
2016,07,21,17,16,26.30
2016,07,21,17,17,26.30
2016,07,21,17,18,26.30
2016,07,21,17,19,26.30